COSMOS 1565

Satellite information

Favourite Embed

Satellite Type and Status

PAYLOADIN ORBIT

Key statistics

Satellite COSMOS 1565 at a glance.

Uptime

15134

Days in orbit

Revolutions

≈ 12.6

Per day

Orbit

LEO

Low Earth Orbit

Inclination

74.0

Latest

Satellite identification and parameters

Extended collection of information and parameters for COSMOS 1565.

Object identification

Identified? True

Debris? False

Object name: COSMOS 1565

International designator: 1984-052G

Object number (NORAD): 15004

Object ID (CCSDS): 15004

Country: COMMONWEALTH OF INDEPENDENT STATES (CIS)

Current information (Y/N): Y

RCS size: MEDIUM

Orbital parameters

Period: 114.699 minutes

Inclination: 74.0145 deg

SMA: 7819.882 km

Apoapsis: 1476.007 km

Periapsis: 1407.486 km

RAAN: 50.3055 deg

Eccentricy: 0.0043812

Argument of periapsis: 209.3853 deg

Mean anomaly: 223.3326 deg

Mean motion: 12.55458833 rev/day

Mean motion (dot): -0.00000023 rev/day2

B* drag term: -0.000041705 1/REarth

Two-line elements (TLE)

Creation date: Nov. 2, 2025, 3:46 p.m.

Reference frame: TEME

Reference center: EARTH

Epoch: Nov. 2, 2025, 11:07 a.m. UTC

TLE line 0: 0 COSMOS 1565

TLE line 1: 1 15004U 84052G 25306.46355343 -.00000023 00000-0 -41705-4 0 9996

TLE line 2: 2 15004 74.0145 50.3055 0043812 209.3853 223.3326 12.55458833898694

Live tracking on map

Real-time ground track for satellite COSMOS 1565.

In-orbit conjunctions

There are no conjunctions computed for COSMOS 1565, at the moment. Check back to stay up to date, as we update our databases every day.

Go to all conjunctions

Associated space launch

Military communications satellites

COSMOS 1565 was lifted into orbit during the mission ‘Kosmos-3M | Strela-1M 281-288’, on board a Kosmos-3M space rocket.

The launch took place on May 28, 1984, 9:52 p.m. from 132/2.

For more information about the launch, click the button.

Launch to space Kosmos-3M | Strela-1M 281-288
Kosmos-3M | Strela-1M 281-288

Agency: N/A

Status: Launch Successful

Launch date: May 28, 1984, 9:52 p.m. UTC

Rocket: Kosmos-3M

Launch pad: 132/2

Location: Plesetsk Cosmodrome, Russian Federation

...

Latest news about this satellite

There are no fresh news available about this satellite. Check back as we update our databases every day.


Newsletter sign-up

Weekly statistics, charts and insights to help you stay on top of the space industry.